一网星座-0049星 (ONEWEB-0049 )

导读 | 星芒AI

ONEWEB-0049 是 OneWeb 卫星通信星座计划中的一颗低轨通信卫星,旨在为全球提供高速互联网服务。该卫星由阿丽亚娜集团制造,采用统一的卫星平台,具备高容量通信能力。它于2022年发射,部署在约1200公里高度的近极地轨道上,与其他 OneWeb 卫星共同构建覆盖全球的宽带网络,重点服务于偏远和网络基础设施薄弱的地区,推动全球数字包容性。

基本信息
目录编号:
45154
目录名称:
ONEWEB-0049
国际标识:
2020-008Z
轨道中心:
EARTH
卫星名称:
一网星座-0049星
卫星全名:
一网星座-0049星 (ONEWEB-0049 )
卫星状态:
在轨 (已飞行2137 天)
发射日期:
2020-02-06 UTC
国别 :
英国 (GB)
星等 :
--
轨道信息
数据来源 国际轨道数据
星历时间: 2025-12-13T02:12:30+0800
15小时前
查看轨道信息
半长轴: 7599.873km
偏心率: 0.0001532
轨道倾角: 87.881°
近地点辐角 122.767°
升交点赤经 73.449°
平近点角 237.360°
近地点: 1220.573km
远地点: 1222.903km
周期: 109.893分钟
每日圈数: 13.10368
详细信息
平衡模式:
三轴稳定
覆盖范围:
全球
运营商:
一网卫星公司
运营商所在国:
英国
制造商(研发单位):
一网卫星公司
制造商所在国:
英国
使用方式:
暂无
卫星简介
OneWeb卫星网络由648颗重约125公斤的微型卫星组成,运行在1200公里的轨道上。 每颗卫星都能够提供至少每秒8千兆位的吞吐量,以使用其高吞吐量的Ku频段有效载荷为家庭和移动平台提供互联网接入。该卫星仍在工作。
2D轨道图
3D轨道图
轨道高度分析图
轨道倾角分析图
轨道综合分析图
查看轨道综合分析图